Flag for U.S.A. Weather past 2 weeks in Cleveland, Ohio, U.S.A.

Now
60 °F

Passing clouds.


Feels Like: 60 °F
Forecast: 68 / 80 °F
Wind: 7 mph from Southwest

Location: Cleveland-Hopkins International Airport

Current Time: Aug 4, 2015 at 6:37:35 AM

Latest Report: Aug 4, 2015 at 5:51 AM


Visibility: 10 mi

Pressure: 29.91 "Hg

Humidity: 80%

Dew point: 54 °F

Location of ClevelandLocation

Historic Weather in Cleveland — Graph

°F

Cleveland temperature yesterday

Maximum temperature yesterday: 82 °F (at 2:51 PM)
Minimum temperature yesterday: 63 °F (at 2:51 AM)
Average temperature yesterday: 73 °F

Past Weeks' High & Low Weather Summary

 TemperatureHumidityPressure
High92 °F (Jul 29, 3:51 PM)96% (Jul 20, 5:51 AM)30.04 "Hg (Jul 20, 5:51 AM)
Low59 °F (Jul 23, 4:51 AM)26% (Jul 23, 4:51 PM)29.70 "Hg (Jul 21, 4:51 AM)
Average75 °F62%29.93 "Hg
* Reported Jul 20 4:51 AM — Aug 4 4:51 AM, Cleveland, Weather by CustomWeather, © 2015

Note: Actual official high and low records may vary slightly from our data, if they occured in-between our weather recording intervals... More about our weather records

Advertising

Cleveland weather history for previous 24 hours

 ConditionsComfort  
Time TempWeatherWind HumidityBarometerVisibility
4:51 AM
Tue, Aug 4
61 °FPassing clouds.8 mph78%29.90 "Hg10 mi
3:51 AM61 °FPassing clouds.6 mph78%29.89 "Hg10 mi
2:51 AM64 °FPassing clouds.6 mph73%29.88 "Hg10 mi
1:51 AM68 °FPassing clouds.7 mph59%29.88 "Hg10 mi
12:51 AM67 °FPassing clouds.7 mph76%29.88 "Hg10 mi
11:51 PM
Mon, Aug 3
68 °FPassing clouds.5 mph84%29.86 "Hg10 mi
10:51 PM71 °FPassing clouds.3 mph76%29.85 "Hg10 mi
9:51 PM75 °FPassing clouds.8 mph66%29.83 "Hg10 mi
8:51 PM71 °FScattered clouds.3 mph73%29.82 "Hg10 mi
7:51 PM78 °FScattered clouds.9 mph58%29.78 "Hg10 mi
6:51 PM81 °FScattered clouds.15 mph51%29.79 "Hg10 mi
5:51 PM81 °FScattered clouds.10 mph53%29.78 "Hg10 mi
4:51 PM82 °FScattered clouds.9 mph53%29.79 "Hg10 mi
3:51 PM82 °FBroken clouds.10 mph46%29.81 "Hg10 mi
2:51 PM82 °FBroken clouds.10 mph55%29.82 "Hg10 mi
1:51 PM81 °FScattered clouds.10 mph54%29.82 "Hg10 mi
12:51 PM79 °FScattered clouds.12 mph58%29.80 "Hg10 mi
11:51 AM75 °FPassing clouds.18 mph62%29.80 "Hg10 mi
10:51 AM76 °FPassing clouds.17 mph60%29.80 "Hg10 mi
9:51 AM73 °FScattered clouds.14 mph66%29.79 "Hg10 mi
8:51 AM68 °FBroken clouds.10 mph78%29.79 "Hg10 mi
7:51 AM64 °FBroken clouds.13 mph87%29.79 "Hg10 mi
6:51 AM63 °FPartly cloudy.12 mph87%29.76 "Hg10 mi
Weather by CustomWeather, © 2015

See weather overviewHow to use our weather pages